Vorticity
9 20 20 -3 -12 -2 5 6 5 13 23 11 2 12 15 8 4 6 8 6 4 4 5 5 5 3 4 4 4 4 5 8 9 8 8 8 8 10 11 12 13 12 12 10 8 8 7 7 6 7 7 7 7 7 6 7 7 7 7 7 8 8 8 8 8 7 6 7 8 8 7 6 6 6 7 7 7 8 9 9 9 9 8 9 10
10 13 6 -6 -4 5 8 8 4 6 15 14 6 1 1 7 6 3 5 5 4 5 3 2 4 4 4 4 6 7 4 4 8 8 8 8 8 7 8 10 11 12 14 14 13 13 12 11 9 7 6 6 6 6 6 6 6 7 7 6 6 6 7 7 7 7 6 7 8 8 9 9 7 6 6 6 5 4 4 5 5 6 6 6 6
9 12 12 7 6 6 11 22 20 11 12 16 12 3 2 7 6 1 3 4 5 6 3 2 3 4 6 6 6 6 6 6 7 7 8 8 7 7 6 6 7 7 9 11 12 13 14 15 15 13 12 10 8 8 7 6 5 5 5 5 5 4 4 4 5 5 4 3 4 5 6 7 8 8 8 7 7 6 5 4 4 4 5 5 6
6 5 5 5 7 7 10 22 23 16 19 19 9 5 8 8 5 6 8 5 2 2 1 2 3 2 5 7 6 4 5 7 7 5 7 8 8 7 6 5 5 6 7 7 7 8 9 10 10 11 12 12 13 12 11 11 11 10 10 9 9 8 8 7 7 6 6 5 5 5 5 5 6 5 5 6 7 7 6 5 5 5 4 4 4
2 1 4 5 10 12 9 10 4 -5 2 14 17 20 19 10 5 9 12 11 10 11 6 1 3 4 3 5 7 6 5 5 5 4 6 7 8 7 6 6 5 5 6 7 7 7 6 7 7 7 7 8 9 10 10 9 8 9 9 9 8 8 8 9 9 9 10 10 10 9 9 9 10 9 8 7 7 7 7 7 7 6 6 5 5
-0 3 9 8 10 13 7 5 7 -2 -9 -1 11 12 7 3 0 -0 4 4 6 16 19 13 7 3 7 13 9 4 6 5 1 4 7 6 6 6 5 6 6 5 4 4 6 7 8 8 7 6 6 6 5 5 5 5 5 4 4 4 4 4 4 4 4 5 6 7 8 9 10 9 10 11 12 12 11 10 9 9 9 8 7 8 8
3 6 7 8 9 7 -2 -2 8 10 2 -0 -2 -11 -11 1 4 -0 2 2 -1 5 14 14 4 -5 9 29 22 6 5 4 0 3 6 5 6 7 5 5 5 3 3 5 3 2 4 6 5 5 4 2 2 3 2 2 2 3 3 3 3 3 4 4 4 4 5 5 5 4 4 4 4 5 7 8 10 11 10 10 11 11 10 9 11
6 6 4 5 5 0 -0 3 6 8 8 7 3 -5 -3 6 5 0 1 2 3 4 4 7 5 -3 4 21 24 11 4 7 10 7 2 1 6 9 8 6 3 1 3 8 7 3 0 0 1 1 0 1 2 1 1 1 1 1 1 2 2 1 1 1 1 1 1 1 2 1 0 1 1 1 1 2 3 5 7 7 8 10 10 9 10
6 6 6 7 5 2 3 4 5 8 9 6 3 2 2 3 3 3 2 0 2 4 3 4 8 7 4 7 12 8 2 6 11 4 -3 2 11 14 11 7 6 4 4 7 9 7 4 3 2 -0 -0 2 1 0 1 1 1 2 1 -0 0 1 1 1 2 3 3 1 1 0 -0 0 1 2 2 2 1 -0 1 2 3 5 7 7 9
7 8 8 8 8 7 6 5 7 9 8 8 8 8 6 5 5 5 3 3 2 2 3 4 4 5 6 5 8 7 4 6 7 3 1 4 10 11 9 10 9 5 3 4 4 4 6 8 7 4 2 3 4 4 4 2 2 3 3 2 3 4 3 3 3 6 8 8 6 5 4 2 2 2 1 2 2 1 -0 -0 -1 0 2 4 6
8 8 9 9 9 9 9 10 10 8 7 8 7 6 5 5 5 4 4 6 8 7 7 8 5 4 5 6 6 5 6 7 5 5 5 4 5 6 6 12 18 16 10 6 3 4 8 12 14 13 11 9 5 -1 -4 -2 2 5 5 5 4 4 2 0 1 4 6 7 6 6 6 5 4 3 2 1 2 3 3 2 0 -1 -0 0 3
9 10 8 9 11 12 12 11 10 12 13 12 11 12 12 10 8 8 8 10 14 14 13 13 12 10 9 8 7 6 8 8 6 6 7 5 5 5 4 7 17 21 15 9 9 10 6 4 6 6 3 -1 -7 -9 -2 5 6 6 8 7 5 5 4 4 6 8 8 8 7 6 7 7 7 7 6 5 4 3 4 5 5 4 2 1 1
10 9 9 10 10 9 8 7 6 8 9 8 10 12 15 19 18 15 12 11 12 12 12 13 14 13 12 10 9 9 10 10 8 7 8 8 7 6 5 4 4 5 5 7 12 9 -1 -7 -6 -4 -3 -6 -8 -1 8 8 7 7 8 7 6 6 6 6 6 6 7 7 6 5 4 4 3 3 3 3 2 1 1 3 5 6 6 5 4
9 8 8 8 8 7 6 5 4 5 5 6 7 7 9 11 10 8 7 7 8 8 8 9 10 11 12 11 12 13 13 11 9 9 9 9 9 8 9 8 5 3 1 2 5 3 -2 -4 -4 -5 -5 -5 -0 8 9 5 4 6 5 6 7 5 3 3 1 1 3 3 2 2 1 -0 -1 -2 -1 -1 -2 -2 -1 1 4 7 8 8 8
8 9 7 5 5 6 5 5 5 7 9 9 8 8 6 2 1 2 4 5 5 3 3 7 10 9 10 10 11 13 14 12 12 13 12 9 9 10 10 10 9 7 5 3 2 2 2 2 -0 -3 -4 -4 2 6 4 1 0 1 3 5 2 -1 -0 -0 -2 -1 2 1 1 1 1 1 1 1 1 1 0 1 2 4 7 9 9 10 12
3 4 5 5 6 6 7 8 8 8 10 9 6 5 3 2 2 3 6 7 2 -2 2 10 12 11 10 10 9 9 11 11 11 13 14 13 12 12 12 12 11 9 8 7 7 6 6 7 8 8 8 8 7 4 0 1 3 5 7 5 1 -0 3 4 4 6 6 5 6 6 6 6 6 7 7 7 7 7 9 11 12 11 10 11 13
2 3 4 3 3 5 7 6 5 6 5 4 3 3 3 4 4 5 7 7 2 2 9 13 11 10 10 9 10 10 10 11 11 11 12 13 13 12 12 12 12 12 11 11 11 12 12 13 14 15 14 13 12 10 10 11 12 12 12 11 10 11 12 10 10 10 10 10 10 10 11 12 11 12 12 11 11 11 11 12 12 10 9 12 13
12 10 7 4 5 8 8 6 5 4 1 -0 2 6 7 8 8 8 7 4 2 8 14 13 10 9 8 7 9 9 9 9 10 10 11 11 12 13 12 12 11 12 11 11 12 12 11 11 11 11 12 12 12 13 13 12 11 11 11 13 15 16 15 14 14 12 11 12 12 12 12 12 12 12 11 11 11 10 10 11 11 10 9 10 10
11 11 9 7 6 6 4 -0 -4 -7 -6 -1 4 8 8 7 7 8 8 8 9 12 12 12 12 10 8 7 7 6 7 7 6 6 7 7 7 8 10 11 11 11 12 12 11 11 11 11 11 10 10 10 10 10 10 9 9 9 9 10 12 14 15 14 13 13 13 12 12 12 12 11 11 11 11 11 11 10 10 10 10 10 11 10 9
-5 -2 1 1 -1 -3 -3 -2 -1 3 6 10 11 10 10 9 9 11 11 10 10 11 11 13 14 13 11 10 9 8 8 7 7 8 7 6 7 6 6 8 9 9 10 10 11 12 12 11 12 12 11 11 11 10 9 9 9 9 10 11 11 11 10 10 10 11 11 11 10 10 10 10 10 10 9 10 10 10 11 11 10 11 11 11 11
3 4 4 3 2 2 4 6 10 13 15 14 13 13 13 12 12 13 12 11 12 13 13 12 11 11 11 11 11 11 10 10 10 10 10 11 11 10 10 10 10 10 10 10 10 11 11 11 11 11 11 11 10 11 11 12 12 12 12 11 10 9 9 9 9 9 9 9 9 9 9 9 8 8 8 8 8 9 9 10 11 11 10 11 11
12 11 8 7 8 9 10 10 10 10 11 11 13 15 15 14 15 15 15 15 16 15 14 13 12 12 12 11 11 11 11 11 11 10 11 12 12 13 14 14 14 14 13 13 14 13 12 12 11 10 10 10 11 12 13 13 12 12 11 10 10 10 10 9 9 9 8 8 8 8 8 8 8 8 8 8 8 9 9 10 10 11 11 11 10
10 11 12 12 13 14 14 14 13 12 11 10 11 13 14 12 12 14 16 17 18 17 15 14 13 13 12 11 12 11 11 11 11 11 11 10 11 12 13 13 14 15 16 17 17 17 16 15 14 14 14 14 14 14 13 13 13 12 12 13 13 12 12 12 12 12 11 11 11 11 11 12 12 12 12 12 12 11 11 12 12 12 13 12 12
7 8 10 11 12 13 12 12 11 10 10 11 11 12 11 11 10 11 12 12 13 14 14 13 12 12 12 11 11 10 10 10 10 10 10 10 11 11 11 12 13 13 15 16 15 15 15 16 17 17 17 18 18 17 16 16 16 16 15 15 15 15 16 16 16 16 17 17 17 17 18 17 17 17 17 16 16 16 15 15 14 14 15 15 15
11 9 8 8 9 11 12 12 12 11 12 12 11 9 9 10 10 9 8 9 10 12 13 13 13 12 12 12 11 10 9 10 9 9 10 10 10 9 10 11 12 12 11 10 10 10 11 11 12 13 14 15 16 16 17 17 17 17 16 16 15 15 15 15 15 15 16 16 16 15 15 14 13 13 14 14 15 15 14 14 14 14 13 14 14
13 12 10 9 9 10 11 11 11 11 10 8 7 8 8 9 9 8 8 10 11 12 12 13 13 13 12 12 11 11 11 10 10 11 11 11 11 11 11 11 11 10 9 8 9 10 11 12 11 10 9 10 11 12 13 13 13 12 12 12 12 12 12 11 11 11 11 11 11 9 9 8 8 8 8 9 10 11 11 12 13 13 13 13 13
16 16 15 14 13 12 11 10 8 8 8 8 8 8 8 9 9 10 11 13 13 12 12 13 13 13 12 11 11 11 11 11 11 12 11 11 11 11 12 13 13 12 12 12 12 12 11 11 10 9 9 9 9 9 8 8 9 10 10 11 12 12 12 12 12 12 12 11 10 10 10 10 9 9 9 10 11 12 13 14 15 15 17 17 16
14 15 15 15 15 15 15 15 14 12 11 11 10 9 9 10 11 11 14 15 14 13 13 13 13 13 12 11 11 11 11 12 12 12 12 12 13 13 14 15 15 14 14 12 11 10 10 10 10 9 9 7 7 8 8 9 10 11 12 13 14 15 16 17 16 17 17 17 17 17 17 18 17 17 17 16 15 14 15 15 15 15 15 15 15
13 12 13 12 12 13 14 15 17 17 15 14 12 11 10 10 11 12 13 13 13 14 14 14 13 12 12 11 11 11 11 12 12 12 13 13 13 13 13 12 11 10 10 10 10 10 9 9 8 7 7 7 8 10 11 13 16 17 19 21 22 23 23 22 22 22 21 21 20 19 18 18 17 16 16 16 15 14 13 14 14 14 13 13 13
12 12 11 12 11 11 11 12 13 15 16 16 14 13 13 13 12 12 12 12 12 13 13 13 12 11 11 11 11 11 11 11 11 11 11 11 11 10 10 9 10 11 11 10 10 9 8 8 8 7 9 12 15 19 21 23 24 24 24 22 21 19 17 15 15 14 12 12 12 11 11 11 10 11 11 10 10 9 9 10 10 10 10 11 10
11 11 11 11 11 11 10 10 11 12 12 13 13 13 13 14 13 12 11 11 11 11 11 12 11 10 10 11 12 11 11 11 11 11 11 11 10 9 10 10 10 10 9 9 9 10 10 11 12 16 21 24 26 27 25 22 19 16 13 11 9 8 7 7 7 7 7 8 8 8 9 9 8 9 10 10 12 14 15 16 16 16 16 16 16
10 10 10 10 10 11 11 10 10 11 11 12 12 12 11 11 12 12 11 11 11 12 12 11 11 11 12 12 12 12 12 12 12 12 11 10 10 10 11 11 10 10 10 12 14 15 17 20 25 28 29 26 22 17 13 10 9 8 7 8 9 9 9 9 9 10 11 11 13 15 16 17 17 18 18 20 22 22 23 23 22 22 23 23 24
14 13 12 12 11 11 11 10 10 10 11 11 10 10 11 12 12 12 12 13 13 13 12 12 12 11 12 13 13 12 12 11 11 12 11 11 12 13 13 14 15 17 18 21 23 25 28 30 28 24 18 13 11 10 10 11 12 12 13 14 13 13 14 15 16 18 19 21 21 21 20 20 20 21 23 25 27 27 27 28 28 29 30 31 31
20 18 17 16 15 13 12 12 11 10 11 11 11 11 11 11 12 12 12 12 13 12 12 12 11 10 11 12 12 12 12 13 13 13 14 15 16 17 18 20 22 25 27 29 29 28 25 21 16 12 11 12 13 14 15 15 15 15 15 14 14 16 17 17 18 17 16 15 14 15 19 24 29 32 34 35 34 33 32 31 31 31 30 29 29
31 28 25 21 20 19 18 15 14 13 12 11 12 12 12 13 13 13 13 14 14 13 12 11 10 11 12 13 14 15 16 17 18 19 21 22 23 24 26 28 30 30 29 26 21 17 14 14 15 17 18 18 17 16 16 15 14 14 13 13 14 15 13 13 15 17 18 21 25 31 35 37 36 34 31 27 24 23 23 23 23 22 21 20 20
34 35 34 31 28 25 23 21 18 17 18 17 16 16 17 17 19 20 20 18 15 13 12 13 13 14 16 18 20 21 21 23 26 26 25 25 27 30 32 32 29 25 19 15 14 15 17 18 19 17 15 15 16 15 14 13 13 12 12 13 14 15 20 26 31 33 35 35 35 33 31 28 26 23 20 19 21 22 23 23 22 21 20 19 18
28 28 30 33 33 31 29 26 22 18 18 18 17 18 21 23 23 21 19 18 17 18 20 20 19 20 21 22 23 26 28 28 26 24 25 27 29 29 27 22 16 12 13 15 17 17 14 11 8 7 8 10 12 12 13 14 13 11 12 15 21 31 39 40 35 29 26 22 19 20 22 23 23 20 17 16 17 17 16 14 11 9 9 10 11
34 31 26 26 29 31 30 30 31 32 32 30 26 25 25 23 18 14 13 15 19 21 21 19 19 20 21 23 25 26 25 22 21 23 26 27 22 16 12 9 10 13 16 16 13 8 4 2 2 2 3 5 7 12 15 15 12 12 18 26 35 41 37 26 17 14 15 16 17 18 18 16 13 12 11 9 8 8 7 5 4 4 6 9 12
29 33 30 24 25 29 32 37 39 34 30 33 36 32 24 18 16 17 18 17 16 17 18 18 19 20 21 21 20 17 15 16 18 19 18 15 12 10 10 12 15 16 12 8 4 2 1 1 1 1 1 2 4 10 15 15 12 17 28 35 34 29 20 13 11 13 17 19 18 15 12 11 10 10 11 9 8 9 10 9 10 14 16 18 20
20 26 30 28 27 26 29 36 35 18 6 14 30 35 30 25 24 23 18 13 13 15 15 15 16 18 17 15 13 13 13 12 10 9 12 15 17 17 16 15 13 9 5 3 2 2 2 1 1 2 2 1 2 7 14 15 13 21 37 39 27 18 16 14 13 17 19 17 14 12 12 14 15 14 15 17 18 19 21 22 22 23 23 21 20
20 19 25 25 24 25 29 32 26 9 3 15 30 32 27 22 16 10 9 11 12 11 10 12 14 14 13 12 12 12 9 6 9 17 23 22 18 14 12 11 9 5 4 3 2 1 1 1 2 2 1 2 2 4 11 14 13 23 43 44 25 16 19 19 18 22 22 15 15 19 18 17 21 23 23 25 25 24 24 26 26 25 25 25 24
30 27 31 27 21 24 31 30 17 5 12 29 32 20 9 6 6 6 9 12 11 9 10 13 14 11 9 10 10 9 10 15 22 25 20 13 10 11 11 8 5 4 3 2 1 1 1 1 2 2 2 3 2 1 7 13 13 22 42 45 28 17 22 23 19 16 11 11 19 21 13 12 20 20 15 17 23 23 23 25 26 25 26 26 26
35 27 32 39 39 38 38 35 26 19 22 26 16 0 -3 6 12 12 10 11 12 12 12 14 14 13 11 8 9 16 24 26 21 13 8 8 10 11 7 5 4 4 4 2 1 1 2 1 2 2 2 3 2 0 4 11 12 16 32 45 37 23 21 23 16 6 4 15 22 12 0 6 16 12 7 14 22 20 17 19 23 25 26 24 20
26 15 15 24 28 24 19 20 24 24 20 15 8 3 6 11 11 8 10 15 15 11 10 13 14 11 8 10 18 27 27 17 7 6 8 10 8 6 5 6 6 4 2 2 2 3 3 1 2 3 1 1 3 2 0 6 11 12 22 40 44 31 21 21 16 7 10 21 17 1 -1 13 18 8 4 11 15 11 9 13 17 19 22 22 18
20 21 20 21 21 18 18 20 22 21 17 13 10 7 3 -1 -2 3 11 16 12 7 8 11 8 3 6 17 25 24 14 5 4 7 8 6 5 7 7 7 4 2 3 4 3 3 2 1 1 3 2 1 3 3 0 2 8 9 14 29 43 39 26 17 12 11 17 18 7 0 11 23 20 9 7 9 10 10 10 10 12 14 16 19 20
13 14 14 14 13 13 12 10 8 8 9 8 6 3 2 2 8 14 16 13 10 9 10 9 4 3 13 22 21 13 6 4 5 6 6 6 8 9 6 4 4 4 4 5 3 2 2 2 1 2 2 1 2 3 1 1 4 7 10 18 32 41 36 21 10 14 22 15 3 7 20 20 11 9 11 8 7 10 9 8 11 14 13 15 17
17 17 14 12 9 6 4 4 6 8 10 9 9 11 13 16 18 18 13 10 11 13 13 11 9 11 18 19 14 8 5 4 4 5 7 7 7 7 5 3 5 5 5 6 4 2 2 2 1 1 3 3 1 1 2 2 2 4 8 11 18 33 43 34 18 15 21 15 4 7 15 10 2 8 14 11 9 10 9 8 13 15 12 13 15
10 13 15 16 15 14 13 12 11 12 14 17 17 16 16 16 15 13 11 12 14 16 17 17 18 19 19 16 9 4 4 5 5 6 7 7 7 6 4 4 5 7 7 7 5 3 2 3 2 1 2 3 2 1 2 3 1 0 5 9 11 20 36 43 32 19 17 14 5 2 6 6 5 12 16 13 9 9 8 7 12 14 13 14 16
8 7 7 9 11 12 12 12 11 12 16 19 18 14 12 12 10 9 9 12 15 18 21 23 23 19 14 9 4 3 6 7 5 5 6 7 6 5 4 5 6 7 8 8 6 4 3 2 2 1 1 2 2 1 1 3 3 1 2 6 9 11 22 39 43 31 18 10 5 4 3 2 5 16 22 16 9 10 11 8 7 9 12 14 16
19 17 13 11 10 10 9 9 7 5 6 8 9 10 12 12 11 10 11 13 17 21 24 22 16 11 6 3 3 4 6 6 4 5 8 8 5 3 5 7 7 8 10 9 7 5 4 3 2 2 2 1 2 2 1 1 3 3 1 2 6 8 11 23 38 42 31 15 6 5 5 2 3 14 23 18 11 12 14 9 4 5 9 11 13
20 22 21 20 19 18 16 14 12 10 10 11 14 15 16 16 16 17 17 18 19 21 19 13 7 4 3 3 3 5 6 6 7 7 7 7 6 6 6 7 7 8 9 9 7 6 5 4 2 2 3 2 1 3 3 1 2 4 3 1 3 7 8 11 22 37 43 33 16 4 2 3 5 9 13 15 15 16 15 11 7 7 7 7 8
Height
5729 5730 5730 5729 5730 5731 5731 5731 5731 5732 5733 5733 5733 5734 5735 5734 5734 5734 5733 5734 5735 5735 5735 5736 5736 5737 5737 5737 5738 5738 5739 5739 5739 5740 5739 5739 5739 5739 5739 5738 5738 5739 5739 5739 5739 5738 5738 5738 5738 5738 5738 5738 5738 5739 5739 5739 5739 5740 5740 5740 5740 5740 5741 5741 5741 5741 5741 5742 5743 5744 5744 5744 5745 5745 5745 5745 5745 5745 5745 5746 5746 5746 5746 5746 5746
5725 5727 5727 5727 5727 5727 5728 5728 5729 5729 5730 5730 5731 5731 5732 5732 5732 5732 5732 5732 5732 5732 5733 5733 5734 5734 5734 5735 5735 5735 5736 5736 5737 5738 5738 5737 5737 5737 5736 5736 5736 5736 5736 5736 5737 5737 5737 5737 5736 5736 5736 5736 5736 5737 5737 5737 5738 5738 5738 5738 5738 5738 5738 5738 5738 5739 5739 5739 5740 5741 5742 5742 5743 5743 5743 5743 5743 5743 5743 5743 5743 5744 5743 5743 5744
5722 5724 5725 5725 5725 5724 5724 5725 5725 5726 5727 5727 5727 5728 5728 5729 5729 5730 5730 5730 5730 5730 5730 5730 5731 5732 5732 5732 5732 5733 5733 5734 5734 5735 5735 5735 5735 5735 5734 5734 5734 5734 5734 5734 5734 5735 5735 5735 5735 5735 5734 5734 5734 5735 5735 5735 5736 5736 5736 5736 5736 5736 5736 5736 5736 5736 5736 5737 5737 5738 5739 5739 5740 5740 5741 5741 5741 5741 5741 5741 5741 5741 5741 5741 5741
5719 5721 5723 5723 5723 5721 5720 5721 5722 5723 5724 5724 5724 5725 5725 5726 5726 5727 5727 5728 5728 5728 5728 5728 5728 5728 5729 5729 5730 5730 5731 5731 5732 5732 5732 5733 5733 5733 5733 5732 5732 5732 5732 5732 5732 5732 5732 5732 5732 5733 5732 5732 5732 5733 5733 5733 5733 5733 5734 5734 5734 5734 5734 5734 5734 5734 5734 5734 5734 5735 5735 5736 5737 5737 5738 5738 5738 5738 5738 5738 5737 5738 5738 5738 5738
5716 5718 5719 5719 5719 5717 5717 5718 5719 5720 5721 5722 5722 5721 5722 5722 5723 5724 5724 5725 5725 5725 5725 5725 5725 5725 5725 5726 5727 5727 5728 5728 5728 5728 5729 5730 5730 5730 5731 5731 5730 5730 5730 5730 5729 5729 5730 5730 5730 5730 5730 5730 5730 5730 5731 5731 5731 5731 5731 5731 5731 5732 5732 5732 5732 5732 5731 5731 5731 5732 5732 5732 5733 5733 5734 5734 5734 5734 5734 5734 5734 5734 5734 5734 5734
5712 5713 5713 5714 5716 5714 5713 5714 5716 5717 5719 5720 5720 5720 5719 5718 5718 5720 5721 5721 5722 5722 5722 5722 5722 5722 5722 5722 5723 5724 5724 5725 5725 5725 5725 5726 5726 5727 5727 5727 5728 5728 5728 5727 5727 5727 5727 5727 5727 5727 5727 5728 5728 5728 5728 5728 5728 5728 5728 5729 5729 5729 5729 5729 5729 5729 5729 5729 5729 5728 5729 5729 5729 5729 5730 5731 5731 5731 5731 5730 5730 5731 5731 5730 5730
5706 5708 5709 5711 5712 5711 5710 5710 5713 5714 5715 5716 5717 5718 5716 5715 5715 5716 5717 5717 5718 5718 5719 5719 5719 5720 5720 5719 5719 5720 5721 5721 5721 5721 5721 5722 5722 5723 5723 5723 5724 5724 5725 5725 5724 5724 5724 5725 5725 5725 5725 5725 5725 5725 5725 5725 5725 5725 5725 5726 5726 5726 5726 5726 5727 5726 5726 5726 5726 5726 5725 5725 5725 5725 5725 5726 5727 5727 5727 5727 5727 5726 5727 5727 5726
5702 5704 5705 5707 5708 5707 5706 5706 5708 5710 5710 5711 5712 5712 5711 5711 5711 5712 5713 5713 5714 5714 5715 5715 5715 5716 5716 5716 5717 5717 5717 5718 5718 5717 5718 5718 5719 5719 5719 5719 5720 5720 5721 5721 5721 5721 5721 5721 5721 5721 5721 5722 5722 5721 5722 5722 5722 5722 5722 5722 5722 5722 5723 5723 5723 5723 5723 5723 5723 5723 5722 5722 5721 5721 5721 5721 5722 5722 5723 5724 5723 5722 5722 5722 5722
5699 5700 5701 5702 5703 5703 5703 5702 5703 5704 5705 5705 5705 5705 5705 5706 5707 5707 5708 5709 5709 5710 5710 5710 5710 5711 5712 5713 5713 5714 5714 5714 5714 5714 5714 5714 5715 5715 5715 5715 5715 5716 5716 5717 5717 5717 5716 5716 5717 5717 5718 5718 5717 5717 5718 5718 5718 5718 5718 5718 5718 5718 5718 5718 5719 5719 5719 5719 5719 5719 5719 5718 5718 5718 5717 5717 5717 5717 5717 5718 5719 5719 5718 5717 5717
5694 5695 5696 5697 5698 5698 5698 5698 5699 5699 5699 5700 5700 5700 5700 5701 5701 5702 5703 5704 5704 5705 5705 5705 5705 5706 5707 5708 5709 5709 5709 5709 5709 5710 5710 5711 5711 5711 5712 5712 5711 5711 5711 5712 5712 5712 5711 5711 5712 5713 5713 5713 5713 5713 5713 5713 5714 5714 5714 5713 5713 5713 5713 5713 5714 5714 5714 5714 5714 5714 5714 5714 5713 5712 5713 5712 5712 5712 5712 5712 5713 5713 5714 5714 5713
5689 5690 5691 5692 5692 5693 5693 5693 5694 5694 5694 5695 5695 5695 5696 5696 5697 5697 5698 5699 5699 5699 5700 5700 5700 5700 5701 5702 5703 5704 5703 5703 5704 5705 5705 5706 5706 5707 5707 5707 5707 5707 5706 5707 5707 5706 5706 5706 5706 5707 5707 5707 5707 5707 5708 5708 5708 5708 5708 5708 5707 5707 5707 5707 5708 5708 5709 5709 5709 5709 5709 5708 5708 5707 5707 5707 5707 5706 5706 5706 5706 5707 5707 5708 5708
5685 5686 5686 5686 5686 5687 5687 5688 5688 5689 5689 5690 5690 5690 5690 5690 5691 5692 5693 5693 5694 5694 5695 5695 5695 5695 5695 5696 5697 5697 5697 5698 5698 5699 5699 5700 5701 5701 5702 5702 5702 5702 5702 5702 5702 5701 5701 5701 5701 5701 5702 5702 5701 5702 5702 5702 5702 5702 5702 5701 5701 5701 5701 5701 5702 5702 5703 5703 5703 5702 5702 5702 5702 5700 5700 5700 5700 5700 5699 5699 5699 5700 5701 5701 5702
5680 5680 5680 5681 5681 5681 5682 5682 5683 5683 5684 5684 5684 5684 5684 5685 5685 5686 5687 5687 5688 5689 5689 5689 5689 5689 5689 5690 5690 5691 5691 5691 5692 5692 5693 5694 5694 5695 5696 5696 5697 5697 5697 5697 5696 5696 5696 5696 5696 5696 5696 5696 5696 5696 5697 5696 5696 5696 5695 5695 5695 5694 5694 5695 5695 5695 5696 5696 5696 5696 5695 5695 5695 5694 5693 5693 5693 5693 5692 5692 5692 5692 5693 5693 5694
5674 5674 5674 5675 5675 5675 5676 5676 5677 5677 5678 5678 5678 5679 5679 5679 5679 5680 5680 5681 5681 5682 5682 5683 5683 5683 5683 5683 5684 5684 5685 5685 5685 5685 5686 5687 5688 5688 5689 5689 5690 5690 5690 5690 5690 5691 5691 5691 5690 5690 5689 5690 5690 5691 5691 5690 5690 5689 5689 5688 5689 5688 5688 5687 5687 5688 5689 5689 5689 5688 5688 5687 5687 5686 5685 5685 5684 5684 5684 5685 5684 5684 5684 5685 5686
5668 5668 5668 5669 5669 5669 5670 5670 5671 5671 5672 5672 5672 5673 5673 5673 5673 5673 5674 5674 5675 5675 5676 5676 5676 5676 5676 5677 5677 5677 5678 5678 5679 5679 5679 5679 5681 5682 5682 5682 5682 5683 5683 5683 5683 5684 5684 5684 5683 5683 5683 5683 5684 5685 5684 5683 5683 5683 5682 5682 5682 5681 5680 5679 5680 5681 5681 5681 5681 5680 5680 5679 5678 5678 5677 5676 5676 5675 5675 5676 5676 5675 5675 5676 5677
5661 5662 5662 5663 5663 5663 5664 5664 5665 5665 5665 5666 5666 5667 5667 5667 5667 5668 5668 5668 5668 5668 5669 5669 5669 5669 5670 5670 5670 5671 5671 5672 5672 5672 5672 5673 5673 5674 5675 5675 5675 5675 5675 5676 5676 5676 5676 5677 5676 5676 5676 5676 5676 5676 5676 5676 5676 5676 5675 5675 5674 5673 5672 5672 5672 5672 5671 5671 5671 5671 5670 5670 5669 5669 5668 5667 5666 5666 5665 5666 5665 5664 5666 5667 5668
5654 5655 5655 5656 5656 5657 5657 5658 5659 5659 5659 5660 5660 5661 5661 5661 5662 5662 5662 5662 5662 5662 5662 5662 5662 5663 5663 5663 5663 5664 5664 5665 5665 5665 5665 5666 5666 5666 5667 5667 5668 5668 5668 5668 5669 5669 5669 5669 5669 5668 5668 5667 5667 5667 5668 5668 5668 5668 5667 5667 5666 5665 5664 5664 5663 5663 5662 5661 5661 5661 5660 5660 5659 5659 5658 5657 5657 5656 5656 5656 5655 5654 5655 5657 5658
5646 5648 5649 5649 5650 5650 5651 5651 5652 5652 5652 5653 5654 5654 5655 5655 5656 5656 5656 5656 5656 5656 5656 5656 5656 5656 5656 5656 5656 5657 5657 5658 5658 5658 5658 5658 5658 5659 5659 5660 5660 5661 5661 5661 5661 5661 5661 5661 5661 5660 5660 5659 5659 5659 5659 5659 5659 5659 5659 5658 5658 5658 5657 5656 5655 5654 5653 5653 5652 5651 5651 5650 5650 5649 5648 5647 5647 5646 5646 5647 5646 5645 5646 5646 5647
5639 5640 5641 5642 5643 5643 5644 5645 5645 5645 5645 5646 5646 5647 5648 5648 5649 5649 5650 5650 5650 5650 5650 5650 5649 5649 5649 5649 5649 5650 5650 5651 5651 5651 5651 5651 5651 5652 5652 5652 5653 5653 5654 5654 5654 5654 5653 5653 5653 5652 5652 5651 5651 5651 5650 5650 5650 5650 5650 5650 5649 5649 5648 5647 5646 5645 5645 5644 5644 5643 5642 5642 5641 5640 5639 5638 5637 5636 5636 5636 5636 5636 5637 5637 5637
5632 5632 5633 5634 5635 5636 5636 5637 5638 5638 5638 5639 5639 5640 5641 5641 5642 5642 5642 5642 5643 5643 5643 5643 5643 5643 5643 5643 5643 5643 5643 5644 5644 5644 5645 5645 5645 5645 5645 5645 5645 5646 5646 5646 5646 5646 5646 5645 5645 5644 5644 5644 5643 5643 5642 5642 5641 5641 5641 5640 5640 5639 5638 5637 5637 5636 5636 5636 5635 5634 5633 5632 5631 5631 5630 5629 5628 5627 5626 5626 5626 5626 5627 5627 5628
5624 5625 5626 5626 5627 5627 5628 5629 5630 5631 5631 5632 5632 5633 5633 5634 5634 5634 5635 5635 5636 5636 5636 5636 5636 5636 5636 5636 5636 5636 5637 5637 5637 5637 5638 5638 5638 5638 5639 5638 5638 5638 5638 5639 5639 5639 5638 5638 5637 5637 5636 5636 5635 5635 5635 5634 5633 5633 5632 5631 5631 5630 5629 5628 5627 5627 5627 5626 5625 5625 5624 5623 5622 5621 5620 5619 5618 5618 5617 5616 5616 5616 5617 5617 5618
5615 5616 5617 5617 5618 5618 5619 5620 5621 5623 5623 5624 5625 5625 5626 5626 5626 5627 5628 5629 5630 5630 5629 5629 5629 5629 5629 5629 5629 5630 5630 5630 5630 5630 5631 5631 5631 5631 5631 5631 5631 5631 5631 5631 5631 5630 5630 5629 5629 5628 5628 5628 5628 5628 5627 5626 5625 5625 5624 5623 5622 5621 5621 5620 5619 5618 5617 5617 5616 5615 5614 5613 5612 5611 5610 5609 5608 5608 5607 5607 5606 5606 5606 5607 5608
5605 5607 5608 5609 5609 5609 5610 5611 5612 5614 5615 5616 5617 5617 5617 5618 5618 5619 5621 5622 5623 5623 5623 5622 5622 5622 5622 5622 5623 5623 5623 5624 5624 5624 5624 5624 5624 5625 5624 5624 5624 5624 5624 5623 5623 5623 5622 5622 5621 5620 5620 5620 5620 5620 5619 5618 5617 5616 5615 5615 5614 5613 5612 5611 5610 5609 5608 5607 5606 5606 5605 5604 5603 5602 5601 5600 5599 5598 5597 5597 5597 5597 5596 5597 5597
5595 5598 5599 5599 5600 5600 5601 5602 5603 5605 5606 5607 5608 5609 5609 5609 5611 5612 5614 5615 5616 5616 5616 5616 5616 5616 5616 5616 5616 5616 5617 5617 5617 5617 5618 5618 5618 5618 5618 5617 5617 5616 5616 5616 5616 5616 5615 5615 5614 5614 5613 5613 5612 5611 5610 5610 5609 5608 5607 5606 5605 5604 5603 5602 5601 5600 5599 5598 5597 5597 5596 5595 5594 5593 5592 5591 5590 5589 5588 5588 5588 5587 5587 5587 5587
5586 5588 5590 5590 5591 5591 5592 5593 5595 5596 5597 5598 5599 5600 5600 5601 5603 5605 5607 5608 5609 5610 5610 5610 5610 5610 5610 5610 5610 5610 5610 5610 5610 5611 5611 5612 5612 5611 5611 5611 5610 5610 5609 5609 5609 5609 5609 5609 5608 5608 5607 5606 5605 5604 5603 5602 5601 5600 5599 5598 5597 5596 5594 5593 5592 5591 5590 5590 5589 5588 5587 5586 5585 5584 5583 5582 5581 5580 5579 5579 5578 5578 5577 5578 5578
5576 5577 5579 5581 5582 5583 5584 5585 5586 5587 5588 5589 5591 5592 5593 5594 5596 5597 5599 5601 5602 5602 5603 5603 5604 5604 5604 5604 5605 5605 5604 5604 5604 5605 5605 5605 5605 5604 5604 5604 5604 5604 5603 5603 5603 5603 5603 5603 5602 5601 5600 5599 5598 5597 5596 5595 5594 5593 5592 5590 5589 5588 5587 5585 5584 5583 5582 5581 5580 5579 5578 5577 5576 5575 5574 5573 5572 5571 5570 5570 5569 5569 5568 5568 5569
5567 5567 5568 5570 5572 5574 5576 5577 5578 5579 5580 5582 5583 5584 5586 5587 5589 5591 5592 5594 5595 5595 5596 5596 5597 5598 5598 5598 5599 5599 5598 5598 5598 5599 5599 5599 5598 5598 5598 5598 5598 5598 5598 5598 5598 5598 5598 5597 5596 5595 5594 5593 5592 5591 5590 5588 5587 5586 5585 5583 5582 5580 5579 5577 5576 5575 5574 5573 5572 5571 5570 5569 5568 5567 5565 5564 5563 5562 5561 5560 5560 5560 5560 5559 5560
5557 5558 5559 5560 5562 5564 5566 5569 5570 5572 5573 5574 5575 5577 5578 5580 5582 5584 5585 5587 5588 5588 5588 5590 5591 5592 5592 5592 5592 5592 5592 5592 5592 5593 5592 5592 5592 5592 5592 5592 5592 5592 5592 5592 5592 5592 5592 5591 5590 5589 5588 5587 5586 5585 5584 5582 5580 5579 5577 5576 5574 5572 5571 5569 5568 5567 5566 5565 5564 5563 5561 5560 5559 5558 5556 5555 5555 5553 5552 5551 5551 5551 5550 5550 5551
5548 5549 5550 5551 5552 5554 5556 5559 5561 5564 5566 5567 5568 5569 5571 5573 5575 5577 5578 5580 5581 5581 5582 5583 5584 5585 5585 5585 5586 5586 5586 5586 5587 5587 5586 5586 5586 5587 5587 5587 5587 5587 5587 5587 5586 5586 5586 5585 5584 5584 5583 5582 5580 5579 5577 5576 5574 5572 5570 5568 5567 5565 5563 5562 5560 5559 5558 5556 5555 5554 5553 5551 5550 5549 5548 5547 5546 5544 5543 5542 5542 5541 5541 5541 5541
5539 5540 5541 5543 5544 5545 5546 5548 5552 5555 5558 5560 5561 5563 5565 5567 5569 5570 5571 5573 5574 5575 5575 5577 5578 5578 5579 5579 5580 5580 5580 5581 5581 5581 5581 5581 5581 5581 5581 5581 5581 5581 5581 5581 5581 5580 5580 5579 5579 5578 5577 5576 5575 5573 5571 5569 5567 5566 5564 5562 5560 5558 5557 5555 5553 5552 5550 5549 5547 5546 5545 5543 5542 5541 5539 5538 5537 5536 5534 5533 5532 5531 5531 5531 5531
5529 5531 5532 5534 5535 5537 5538 5539 5542 5546 5549 5551 5553 5556 5558 5560 5562 5563 5564 5566 5567 5568 5569 5570 5571 5572 5573 5573 5574 5574 5574 5575 5575 5575 5575 5576 5576 5576 5576 5576 5576 5576 5576 5575 5575 5575 5574 5574 5574 5573 5572 5570 5569 5567 5566 5564 5562 5560 5558 5556 5554 5552 5550 5548 5546 5545 5543 5541 5540 5538 5537 5535 5534 5532 5530 5529 5528 5527 5525 5523 5522 5521 5520 5520 5520
5519 5521 5523 5525 5526 5528 5530 5532 5534 5537 5540 5543 5546 5549 5551 5553 5555 5556 5558 5559 5561 5562 5563 5564 5565 5566 5566 5567 5568 5568 5569 5569 5569 5570 5570 5570 5570 5570 5570 5570 5571 5571 5570 5570 5570 5570 5569 5569 5569 5568 5567 5565 5564 5563 5561 5560 5558 5556 5554 5551 5549 5546 5544 5542 5540 5538 5536 5534 5533 5531 5529 5527 5525 5523 5522 5520 5519 5518 5516 5514 5512 5511 5510 5510 5509
5509 5511 5513 5515 5517 5519 5522 5524 5526 5529 5532 5535 5538 5541 5544 5546 5548 5550 5552 5553 5555 5556 5557 5558 5559 5560 5560 5561 5562 5562 5563 5563 5563 5564 5564 5564 5564 5565 5565 5565 5565 5565 5565 5565 5565 5565 5565 5565 5564 5564 5563 5562 5561 5559 5557 5555 5553 5551 5549 5546 5544 5541 5538 5536 5533 5531 5529 5527 5525 5522 5520 5518 5517 5515 5514 5512 5510 5509 5507 5505 5504 5503 5502 5501 5500
5499 5501 5503 5505 5508 5510 5513 5515 5518 5521 5525 5528 5531 5534 5537 5539 5542 5544 5545 5547 5549 5550 5551 5552 5553 5554 5555 5555 5556 5556 5557 5557 5558 5558 5558 5558 5559 5559 5559 5560 5560 5561 5561 5561 5561 5562 5562 5562 5561 5561 5560 5559 5557 5555 5553 5551 5549 5546 5543 5540 5537 5535 5532 5529 5526 5524 5521 5519 5516 5514 5513 5511 5509 5508 5506 5505 5503 5501 5500 5499 5498 5497 5496 5495 5494
5488 5491 5493 5495 5498 5501 5503 5506 5509 5513 5517 5520 5523 5527 5530 5533 5536 5538 5539 5541 5543 5544 5546 5547 5548 5549 5549 5550 5551 5551 5551 5552 5552 5552 5553 5553 5553 5554 5554 5555 5556 5557 5557 5558 5559 5559 5559 5559 5559 5558 5557 5556 5554 5552 5549 5547 5544 5541 5538 5534 5531 5528 5525 5522 5519 5516 5513 5511 5509 5507 5506 5505 5503 5502 5501 5499 5498 5496 5495 5494 5493 5492 5491 5490 5489
5480 5481 5484 5486 5488 5491 5494 5497 5501 5505 5509 5513 5516 5520 5523 5527 5530 5532 5533 5535 5537 5539 5540 5542 5543 5544 5544 5545 5546 5546 5546 5547 5547 5547 5548 5548 5549 5549 5551 5552 5553 5554 5555 5556 5556 5557 5557 5557 5557 5556 5555 5553 5551 5548 5545 5542 5539 5536 5532 5529 5525 5521 5518 5515 5512 5509 5507 5505 5504 5503 5501 5500 5499 5498 5497 5495 5494 5493 5491 5490 5489 5488 5487 5486 5485
5473 5474 5476 5478 5480 5483 5486 5489 5493 5497 5501 5505 5509 5514 5518 5522 5525 5527 5528 5530 5532 5534 5536 5537 5538 5539 5540 5541 5541 5542 5542 5543 5543 5543 5544 5545 5545 5547 5548 5549 5550 5552 5553 5554 5554 5555 5555 5555 5554 5553 5552 5550 5548 5545 5542 5539 5535 5532 5527 5522 5518 5515 5512 5509 5506 5504 5503 5501 5500 5499 5498 5497 5496 5495 5493 5492 5491 5489 5488 5487 5486 5484 5483 5482 5481
5467 5469 5470 5472 5474 5477 5479 5483 5487 5492 5496 5500 5504 5509 5513 5517 5520 5522 5524 5526 5528 5530 5532 5534 5535 5536 5536 5537 5538 5539 5539 5539 5540 5540 5541 5543 5544 5545 5546 5547 5548 5550 5551 5552 5552 5553 5553 5552 5552 5551 5549 5547 5545 5542 5539 5536 5532 5527 5522 5517 5512 5509 5506 5504 5502 5501 5500 5499 5498 5497 5496 5495 5493 5492 5491 5490 5488 5487 5485 5484 5482 5481 5479 5477 5476
5464 5465 5466 5468 5470 5473 5476 5479 5483 5488 5492 5496 5500 5504 5508 5512 5515 5518 5520 5522 5525 5527 5529 5530 5531 5532 5534 5535 5536 5536 5536 5537 5538 5539 5540 5541 5542 5543 5544 5546 5547 5548 5549 5550 5550 5550 5550 5550 5550 5548 5547 5545 5543 5540 5537 5533 5528 5523 5517 5511 5507 5505 5503 5502 5501 5500 5499 5498 5496 5495 5494 5493 5492 5490 5489 5487 5486 5484 5482 5480 5478 5477 5475 5473 5472
5461 5463 5464 5466 5468 5470 5473 5477 5480 5485 5491 5495 5497 5500 5504 5508 5511 5514 5517 5520 5522 5524 5526 5527 5529 5530 5531 5532 5533 5534 5535 5536 5537 5538 5539 5540 5541 5542 5543 5544 5545 5547 5548 5548 5548 5549 5549 5548 5547 5546 5545 5543 5541 5538 5534 5530 5525 5519 5512 5508 5505 5503 5502 5500 5499 5498 5497 5496 5495 5494 5492 5491 5490 5488 5486 5485 5483 5481 5479 5476 5474 5473 5471 5469 5468
5459 5461 5463 5465 5467 5469 5471 5475 5478 5483 5488 5493 5496 5499 5502 5506 5509 5512 5515 5518 5520 5522 5523 5525 5527 5528 5529 5530 5531 5532 5534 5534 5535 5536 5537 5538 5539 5541 5542 5543 5544 5545 5546 5546 5547 5547 5547 5546 5545 5544 5543 5542 5539 5536 5532 5527 5522 5516 5510 5505 5503 5502 5500 5499 5498 5497 5496 5495 5494 5492 5491 5489 5488 5486 5484 5482 5480 5478 5476 5474 5471 5470 5468 5466 5465
5459 5461 5462 5464 5466 5468 5471 5474 5478 5482 5486 5490 5494 5497 5501 5505 5508 5511 5514 5516 5518 5520 5522 5523 5525 5526 5527 5529 5530 5531 5532 5533 5533 5535 5536 5537 5538 5539 5541 5542 5543 5544 5544 5545 5545 5545 5545 5544 5544 5543 5542 5540 5537 5534 5530 5525 5520 5514 5508 5504 5502 5500 5499 5498 5497 5496 5495 5494 5492 5491 5489 5488 5486 5485 5483 5481 5479 5476 5474 5472 5470 5468 5466 5465 5463
5461 5462 5463 5465 5467 5469 5472 5475 5478 5482 5486 5490 5493 5497 5501 5504 5507 5510 5512 5514 5516 5518 5520 5522 5523 5524 5526 5527 5528 5529 5530 5531 5532 5534 5535 5536 5537 5538 5540 5541 5542 5542 5542 5543 5543 5543 5543 5542 5542 5541 5540 5538 5536 5533 5529 5525 5520 5514 5508 5504 5501 5500 5498 5497 5496 5495 5495 5493 5492 5490 5489 5488 5486 5484 5482 5480 5478 5475 5473 5471 5470 5468 5466 5464 5463
5465 5466 5467 5468 5470 5472 5475 5477 5480 5484 5488 5491 5495 5498 5501 5504 5506 5508 5511 5513 5515 5517 5518 5520 5522 5523 5524 5526 5527 5528 5529 5530 5531 5533 5534 5535 5536 5537 5538 5539 5540 5540 5541 5541 5541 5541 5541 5541 5540 5539 5538 5536 5534 5531 5528 5524 5519 5514 5509 5504 5501 5499 5497 5496 5495 5494 5493 5492 5491 5490 5489 5487 5485 5483 5481 5479 5477 5475 5473 5471 5470 5468 5466 5464 5463
5471 5471 5472 5473 5475 5477 5479 5481 5484 5487 5490 5494 5497 5499 5502 5504 5506 5508 5510 5512 5514 5515 5517 5519 5520 5522 5523 5524 5525 5526 5528 5529 5531 5532 5533 5534 5535 5536 5537 5538 5538 5539 5540 5540 5540 5540 5539 5539 5538 5537 5536 5534 5532 5529 5526 5523 5518 5514 5510 5505 5501 5498 5497 5495 5494 5493 5493 5491 5490 5489 5488 5486 5485 5482 5480 5479 5477 5475 5474 5472 5470 5468 5467 5465 5463
5476 5477 5477 5478 5480 5482 5483 5485 5488 5490 5493 5495 5498 5500 5501 5503 5505 5507 5509 5511 5513 5514 5516 5518 5519 5520 5521 5523 5524 5526 5527 5529 5530 5531 5532 5533 5534 5535 5536 5536 5537 5538 5538 5539 5539 5538 5538 5537 5536 5536 5534 5532 5530 5528 5525 5522 5518 5514 5510 5506 5501 5498 5496 5495 5494 5493 5492 5491 5490 5489 5488 5486 5484 5482 5480 5479 5477 5476 5474 5473 5471 5469 5467 5465 5464
5480 5481 5482 5483 5484 5486 5487 5489 5491 5493 5495 5497 5498 5500 5502 5503 5505 5507 5509 5510 5512 5513 5515 5516 5518 5519 5520 5522 5523 5525 5526 5528 5529 5530 5531 5532 5533 5534 5535 5535 5536 5537 5537 5537 5537 5537 5536 5536 5535 5534 5533 5531 5529 5527 5524 5521 5518 5515 5511 5506 5502 5498 5496 5494 5493 5492 5491 5490 5489 5489 5487 5486 5484 5482 5481 5479 5478 5476 5475 5473 5472 5470 5468 5466 5464
5483 5484 5485 5486 5487 5489 5490 5492 5493 5495 5496 5498 5499 5500 5502 5503 5505 5507 5508 5509 5511 5512 5513 5515 5516 5518 5519 5521 5522 5524 5525 5526 5528 5529 5530 5531 5532 5532 5533 5534 5535 5535 5535 5536 5535 5535 5535 5534 5533 5533 5531 5529 5528 5526 5523 5520 5518 5515 5511 5507 5503 5500 5497 5494 5493 5491 5490 5490 5489 5488 5487 5486 5484 5482 5481 5479 5478 5477 5475 5474 5473 5471 5469 5467 5466
5486 5487 5488 5489 5490 5491 5493 5494 5495 5496 5497 5498 5499 5501 5502 5503 5505 5506 5507 5508 5510 5511 5512 5514 5515 5517 5518 5520 5522 5523 5524 5525 5526 5528 5529 5529 5530 5531 5532 5532 5533 5533 5534 5534 5533 5533 5533 5532 5532 5531 5530 5528 5527 5525 5522 5520 5518 5515 5512 5508 5505 5501 5498 5495 5493 5491 5490 5489 5489 5488 5487 5485 5484 5482 5481 5480 5478 5477 5476 5475 5474 5472 5471 5469 5467
5489 5490 5490 5491 5492 5493 5494 5495 5496 5497 5498 5499 5500 5501 5502 5503 5504 5505 5506 5508 5509 5510 5511 5513 5515 5516 5518 5519 5521 5522 5523 5524 5525 5526 5527 5528 5528 5529 5530 5531 5531 5531 5532 5532 5531 5531 5531 5531 5530 5529 5528 5527 5525 5524 5522 5520 5518 5515 5513 5510 5507 5503 5499 5496 5493 5491 5490 5489 5488 5487 5487 5485 5484 5483 5481 5480 5479 5478 5477 5476 5475 5474 5472 5471 5469
5492 5492 5492 5493 5493 5494 5494 5495 5496 5497 5498 5499 5500 5500 5501 5502 5503 5505 5506 5507 5508 5510 5511 5513 5514 5516 5518 5519 5520 5521 5522 5523 5524 5525 5525 5526 5527 5527 5528 5529 5529 5530 5530 5530 5529 5529 5529 5529 5528 5528 5527 5525 5524 5523 5521 5519 5517 5515 5513 5511 5508 5504 5500 5497 5494 5492 5490 5489 5488 5487 5486 5485 5484 5483 5482 5480 5479 5479 5478 5477 5476 5475 5474 5473 5471